Regional Weather Roundup
Issued by NWS Sioux Falls, SD

Home | Current Version | Previous Version | Graphics & Text | Print | Product List | Glossary On
Versions: 1 2 3 4 5 6 7 8 9 10 11 12 13 14 15 16 17 18 19 20 21 22 23 24 25 26 27 28 29 30 31 32 33 34 35 36 37 38 39 40 41 42 43 44 45 46 47 48 49 50
000
ASUS43 KFSD 011102
RWRFSD

WEATHER ROUNDUP FOR SE SOUTH DAKOTA/SW MINNESOTA/NW IOWA
NATIONAL WEATHER SERVICE SIOUX FALLS SD
600 AM CDT WED JUL 01 2015

NOTE: "FAIR" INDICATES FEW OR NO CLOUDS BELOW 12,000 FEET WITH NO
SIGNIFICANT WEATHER AND OR OBSTRUCTIONS TO VISIBILITY.


SDZ038>040-050-052>070-011200-
SOUTHEAST SOUTH DAKOTA

CITY           SKY/WX    TMP DP  RH WIND       PRES   REMARKS
BROOKINGS      CLOUDY    63  59  88 E7        29.92F
CHAMBERLAIN    PTCLDY    64  62  92 E3        29.88F
HURON          LGT RAIN  65  64  97 E5        29.89R FOG
MADISON        LGT RAIN  63  63 100 SE6       29.90F
MITCHELL       CLOUDY    66  65  96 E6        29.88R FOG
SIOUX FALLS    RAIN      63  61  93 E6        29.88F FOG
WINNER         LGT RAIN  66  60  81 SW3       29.89R
YANKTON        MOCLDY   N/A N/A N/A NW24G38   29.93R THUNDER
$$

MNZ071-072-080-081-089-090-097-098-011200-
SOUTHWEST MINNESOTA

CITY           SKY/WX    TMP DP  RH WIND       PRES   REMARKS
FAIRMONT       CLEAR     57  50  77 E7        29.93S
JACKSON        PTCLDY    59  55  88 E7        29.94S
LUVERNE        MOCLDY    64  61  88 CALM      29.92R
MARSHALL       MOCLDY    61  55  82 E10       29.92S
MONTEVIDEO     CLOUDY    61  59  94 SE5       29.95R
PIPESTONE      MOCLDY    63  61  94 SE6       29.91S FOG
REDWOOD FALLS  CLOUDY    61  57  87 E6        29.94F
TRACY          MOCLDY    60  59  95 E5        29.93F
WINDOM         MOCLDY    59  55  88 E7        29.94S
WORTHINGTON    CLOUDY    61  55  82 E3        29.93S
$$

IAZ001>003-012>014-020>022-031-032-NEZ013-014-SDZ071-011200-
NORTHWEST IOWA

CITY           SKY/WX    TMP DP  RH WIND       PRES   REMARKS
DENISON        CLOUDY    66  64  94 E3        29.86S FOG
ESTHERVILLE    CLEAR     57  56  96 NE5       29.93R
SIOUX CITY     CLOUDY    67  64  90 E13       29.83F THUNDER FOG
SPENCER        CLOUDY    63  60  90 E8        29.92R FOG
$$

ABBREVIATIONS USED IN REMARKS
   TC - TEMPERATURE IN CELSIUS
  WCI - WIND CHILL INDEX
   HX - HEAT INDEX
  VSB - VISIBILITY



USA.gov is the U.S. government's official web portal to all federal, state and local government web resources and services.